Temperature
21 19 18 19 20 20 21 20 20 21 22 21 20 19 20 21 21 20 20 21 21 21 21 20 20 20 19 19 19 18 18 18 17 17 17 17 16 16 16 16 16 16 16 16
18 19 20 21 21 21 21 20 20 21 22 21 20 19 20 20 20 21 21 21 21 21 20 20 20 20 19 19 19 18 18 18 17 17 17 17 16 16 16 16 16 16 16 16
19 20 21 21 21 21 21 20 20 20 21 21 20 19 19 20 20 21 21 21 21 21 20 20 20 19 19 19 19 18 18 18 17 17 17 16 16 16 16 16 16 16 16 16
19 21 21 21 21 21 20 21 21 21 19 18 19 17 18 18 19 19 20 20 20 20 20 20 20 19 19 19 19 18 18 18 17 17 17 17 16 16 16 16 16 16 16 15
19 21 21 20 21 21 20 21 21 20 19 18 18 17 17 18 18 18 19 20 20 20 20 20 20 20 19 19 19 18 18 18 17 17 17 17 16 16 16 16 16 16 16 15
20 21 21 21 21 21 21 20 19 17 17 17 18 17 17 17 18 19 19 20 20 20 20 20 20 20 19 19 19 18 18 17 17 17 17 16 16 16 16 16 16 16 16 15
19 20 21 21 20 20 19 17 16 17 16 16 18 18 17 18 19 19 19 20 20 20 20 20 20 19 19 19 18 18 18 17 17 17 17 16 16 16 16 16 16 16 16 15
17 17 19 20 20 19 19 17 16 17 16 16 18 17 18 19 20 20 20 20 20 20 20 20 20 19 19 19 18 18 18 17 17 17 16 16 16 16 16 16 16 16 16 16
16 17 19 20 20 20 19 17 17 16 17 16 17 17 18 19 19 19 19 20 20 20 20 20 19 19 19 19 18 18 18 17 17 17 17 16 16 16 16 16 16 16 16 15
17 17 18 19 20 19 19 18 15 16 16 16 17 17 17 18 18 18 18 19 19 19 19 19 19 19 19 19 18 18 18 17 17 17 16 16 16 16 16 16 16 16 16 15
16 16 16 18 18 18 18 17 16 14 15 15 16 16 18 18 18 18 18 19 19 19 19 19 19 19 19 19 18 18 17 17 17 17 16 16 16 16 16 16 16 16 16 16
15 14 14 16 17 18 18 17 15 15 15 14 14 16 18 18 18 18 18 19 19 19 19 19 19 19 18 18 18 18 17 17 17 17 16 16 16 16 16 16 16 16 16 16
15 14 14 15 16 17 17 17 16 14 13 13 14 16 18 17 18 18 18 19 19 19 18 18 18 18 18 18 18 18 17 17 17 17 16 16 16 16 16 16 16 16 16 16
16 13 14 14 15 15 16 17 16 15 13 14 14 16 17 17 16 17 18 18 18 18 18 18 18 18 18 18 17 17 17 17 17 16 16 16 16 16 16 16 16 16 16 15
14 14 14 15 16 16 16 16 16 16 15 14 15 15 16 16 17 17 18 18 18 18 18 18 18 17 17 17 17 17 17 16 16 16 16 16 16 16 16 16 15 15 15 15
13 14 14 15 16 16 16 16 16 16 16 15 16 16 16 17 17 17 17 17 17 17 17 18 17 17 17 17 17 17 16 16 16 16 16 16 16 16 16 16 15 15 15 15
12 13 13 13 14 15 15 16 16 16 16 16 15 16 16 16 16 17 17 17 17 17 17 17 17 17 17 17 17 16 16 16 16 16 16 16 16 16 16 15 15 15 15 15
12 12 11 12 13 14 15 16 17 16 16 16 16 16 16 17 17 17 18 17 17 17 17 17 17 17 17 17 17 16 16 16 16 16 16 16 16 16 15 15 15 15 15 15
12 12 11 11 12 13 15 16 16 16 15 15 15 16 16 17 16 16 17 17 17 17 18 17 17 17 17 16 16 16 16 16 16 16 16 16 16 15 15 15 15 15 15 15
12 11 11 11 12 13 14 16 16 16 15 15 15 15 15 15 13 14 17 17 17 17 18 17 17 17 16 16 16 16 16 16 16 15 15 15 15 15 15 15 15 15 15 15
12 11 11 11 11 12 14 15 16 14 14 15 15 15 15 14 15 16 16 16 17 17 17 17 17 16 16 16 16 16 16 16 15 15 15 15 15 15 15 15 15 15 15 15
11 11 11 10 11 12 14 15 14 14 15 15 15 15 15 15 15 16 16 16 16 16 17 17 17 16 16 16 16 15 15 15 15 15 15 15 15 15 15 15 15 15 14 14
11 11 11 11 12 13 15 15 15 15 15 15 15 15 15 15 15 15 15 15 16 16 16 16 16 16 16 16 16 15 15 15 15 15 15 15 15 15 15 15 15 14 14 14
10 11 11 11 12 13 14 15 15 15 15 15 15 15 15 14 14 14 14 15 15 15 16 16 15 15 15 15 15 15 15 15 15 15 15 15 15 14 14 14 14 14 14 14
10 10 10 10 11 13 13 14 14 15 15 15 15 15 15 14 14 14 14 14 15 15 15 15 15 15 15 15 15 15 15 15 15 15 14 14 14 14 14 14 14 14 14 14
10 10 10 10 12 11 13 13 14 14 14 14 14 14 14 14 14 14 14 14 14 15 15 15 15 15 15 15 15 15 15 15 15 14 14 14 14 14 14 14 14 14 14 14
Wind_Speed
0 3 3 6 6 6 3 2 3 4 3 2 3 4 5 5 5 5 5 5 6 7 7 8 8 7 7 6 6 7 7 6 5 4 4 3 2 2 2 2 5 6 7 8
4 3 7 5 4 3 2 2 3 4 3 2 3 4 5 5 6 7 7 7 7 6 5 7 7 7 7 7 7 7 7 7 6 5 4 3 3 2 2 1 3 5 6 7
5 5 3 2 1 1 2 3 4 3 3 1 1 3 4 4 3 4 5 7 8 9 9 9 8 8 7 8 9 9 8 7 7 6 4 4 3 3 2 2 1 2 4 6
3 4 1 1 2 2 3 3 3 2 1 3 1 2 6 5 3 4 5 5 7 7 8 9 10 9 9 9 9 9 9 8 7 7 7 7 5 3 3 2 2 1 3 4
3 1 1 2 3 3 5 3 1 2 2 2 2 2 6 3 4 7 6 6 7 8 8 10 11 11 9 8 8 8 8 7 7 7 8 8 5 4 2 2 2 1 1 2
3 2 2 3 2 1 1 3 5 4 3 3 5 5 5 4 8 7 6 5 7 8 8 7 7 7 7 7 7 7 8 7 7 8 8 9 8 6 5 4 3 2 1 1
3 3 2 0 2 3 4 5 3 4 2 5 2 3 6 7 6 7 7 6 6 6 6 6 7 7 7 7 8 7 9 7 8 8 8 8 9 8 7 6 5 4 2 2
0 4 3 1 2 2 2 6 5 4 4 4 2 3 5 4 3 3 3 4 5 6 6 7 8 8 8 8 9 8 9 8 8 8 8 7 7 6 5 6 5 5 4 4
2 5 4 3 1 4 2 2 5 4 2 2 3 2 4 4 3 2 2 1 3 5 6 7 7 7 7 8 9 10 10 8 8 8 7 7 7 6 6 5 5 4 4 3
3 3 4 3 2 2 3 3 4 3 2 3 3 3 4 2 2 2 1 1 2 3 4 5 6 6 6 7 7 9 9 9 8 8 8 7 7 7 6 6 5 5 5 4
3 2 3 2 1 2 2 2 3 2 3 3 3 5 4 6 4 4 4 4 4 4 4 5 5 5 5 5 6 8 8 8 8 8 7 6 6 6 6 6 6 5 5 5
1 3 2 5 5 3 4 3 4 2 2 2 2 6 5 4 3 2 2 3 3 4 4 5 5 5 5 5 6 7 7 8 7 7 7 7 6 6 6 6 5 5 5 5
2 4 1 4 5 3 0 1 2 3 2 3 3 7 4 2 2 1 1 1 1 2 3 3 4 5 6 6 5 6 6 7 6 7 7 6 6 6 6 6 5 4 4 4
3 3 5 7 6 4 4 5 2 2 3 4 6 7 6 4 4 4 3 2 1 3 3 4 4 4 5 5 6 5 5 5 6 7 7 7 6 7 6 5 5 5 4 5
3 2 3 6 7 5 6 7 6 6 7 7 8 8 9 7 6 5 3 2 1 2 4 4 5 4 4 4 5 5 5 5 5 6 7 7 6 5 5 5 5 5 5 5
2 1 2 5 5 5 7 8 8 8 7 7 7 9 8 6 3 2 2 2 2 2 4 5 5 5 5 5 6 6 6 6 5 6 7 6 6 5 5 6 6 5 5 5
1 2 0 5 6 4 7 7 8 6 6 6 9 9 5 4 5 6 5 4 4 4 4 5 6 6 6 6 7 8 7 6 5 6 6 6 6 6 6 6 6 6 5 5
5 3 2 2 2 6 8 5 4 4 4 4 4 4 5 6 6 6 5 5 5 5 5 5 5 5 5 4 5 6 6 6 6 5 6 6 7 7 6 6 6 5 4 5
7 6 3 2 4 8 7 4 2 2 5 2 1 2 3 2 1 3 4 5 7 7 7 6 6 6 6 5 5 6 6 6 6 5 6 7 7 8 7 7 6 5 5 4
4 4 4 3 4 7 6 4 3 1 4 4 1 1 2 1 1 6 5 4 5 5 5 5 5 5 6 5 5 6 6 6 6 6 6 6 7 8 8 8 6 5 5 5
1 1 4 5 6 7 6 4 2 2 6 5 2 3 3 4 6 7 5 4 4 5 5 5 5 6 6 6 6 6 6 6 6 5 5 6 7 8 8 7 5 6 5 5
5 4 5 5 6 8 4 0 3 6 4 3 3 3 3 4 4 4 4 4 4 3 4 4 5 6 6 7 7 7 6 6 4 4 5 5 6 6 6 7 6 6 6 6
5 6 5 7 7 5 4 4 5 4 3 4 3 4 3 3 4 4 4 4 4 4 3 3 4 5 5 7 8 8 6 5 5 5 5 5 5 5 6 7 7 6 6 5
4 2 3 4 6 6 5 5 5 4 4 5 5 3 3 4 4 4 4 4 3 3 3 3 4 5 5 6 7 7 6 6 6 6 5 5 5 5 5 5 6 6 6 5
6 2 3 6 8 6 5 5 5 6 5 5 4 3 3 4 5 5 4 4 3 3 3 3 5 6 6 6 6 6 7 7 7 6 5 5 5 6 6 5 5 6 6 7
6 7 7 8 8 6 8 7 7 6 6 5 5 5 5 5 5 5 4 4 3 3 3 3 4 5 5 5 5 6 7 8 7 5 5 5 4 5 5 5 3 3 3 6
Wind_Direction
95 91 218 225 208 207 210 204 241 242 236 157 188 218 236 224 197 199 199 194 191 192 188 175 170 162 154 152 151 152 150 151 140 135 132 129 135 134 113 121 127 126 128 127
43 250 239 230 228 217 218 220 253 275 257 208 211 240 239 226 208 202 196 194 191 185 173 172 169 162 164 166 163 163 162 160 157 158 159 155 150 144 141 118 107 119 131 136
193 240 243 219 220 239 248 213 227 251 315 357 80 312 273 263 236 214 195 191 187 182 180 179 173 172 170 174 173 174 176 168 165 156 133 112 88 70 63 79 105 115 136 139
223 255 216 174 218 186 250 245 212 216 84 275 164 266 271 249 264 235 210 190 188 189 181 180 176 177 181 185 179 173 175 173 172 157 146 145 143 151 183 183 168 138 118 129
250 238 133 212 238 197 221 232 208 222 184 291 267 197 274 247 240 245 229 206 193 190 183 183 184 184 184 181 176 171 169 171 170 160 155 149 148 160 158 147 142 139 115 126
249 242 192 209 240 200 175 44 21 34 83 270 237 186 264 232 224 233 229 206 189 188 187 181 179 176 177 175 171 166 166 171 168 161 159 158 160 159 150 155 160 165 148 147
325 308 298 64 31 3 63 81 23 353 353 257 245 175 246 239 223 212 206 198 187 179 172 168 168 174 177 173 171 167 168 172 170 165 170 172 169 169 171 174 177 170 163 170
203 284 282 292 174 203 201 141 161 207 233 276 331 222 254 255 208 187 179 186 182 178 174 174 177 178 179 178 174 171 172 173 171 172 181 180 171 173 179 179 178 181 187 187
172 261 290 291 267 145 135 185 181 158 230 253 264 267 312 1 40 51 62 110 184 189 182 180 178 177 178 177 179 177 174 175 176 178 178 182 178 177 179 179 176 181 188 184
153 249 277 289 21 23 129 144 81 117 181 248 270 240 231 245 277 282 232 229 232 207 190 178 173 177 183 180 179 172 172 175 179 181 182 179 183 183 176 168 173 181 187 183
107 151 303 352 162 228 56 75 97 130 166 177 246 263 225 204 216 225 228 226 219 201 187 183 178 172 169 163 165 168 172 172 177 181 180 174 177 174 167 170 180 183 185 180
95 125 245 262 270 204 165 169 140 159 249 194 205 265 275 206 213 222 255 257 237 199 184 170 162 152 153 160 163 169 171 173 181 179 171 171 173 170 170 177 184 180 183 185
97 103 47 332 333 355 110 173 140 143 149 189 202 262 307 332 318 288 281 274 259 188 161 146 151 156 166 169 168 170 175 176 173 165 162 167 172 174 180 181 182 178 177 177
106 125 176 210 235 244 266 265 227 153 189 230 228 251 289 295 287 292 288 252 207 175 164 161 164 176 173 169 167 169 174 174 168 164 165 174 183 181 186 179 172 171 164 160
86 160 224 245 251 244 252 257 243 225 211 214 239 241 254 251 244 250 257 257 200 182 176 178 181 184 175 170 171 174 177 175 169 166 171 180 181 176 172 169 167 160 157 158
65 161 300 285 276 264 263 261 250 243 229 231 244 257 255 245 233 235 229 205 225 225 200 188 184 180 182 184 182 180 183 183 172 173 178 175 168 160 160 163 159 153 154 151
183 146 165 273 296 314 265 245 232 238 231 214 235 246 250 242 221 213 211 205 212 226 217 198 189 187 193 193 189 187 187 179 171 177 176 171 166 163 165 161 149 154 158 152
178 170 174 250 328 245 249 249 224 234 258 251 238 236 222 221 228 219 206 204 226 222 210 201 200 195 195 188 182 179 173 170 174 178 178 175 171 169 162 155 154 154 155 156
179 168 172 177 235 267 280 282 253 242 269 288 292 290 283 265 340 290 245 216 217 217 208 203 200 192 187 184 175 165 169 172 174 183 187 184 175 168 165 166 167 159 152 156
131 145 158 179 211 238 248 277 290 173 258 297 287 265 300 28 261 260 266 257 237 229 210 198 189 178 179 185 163 162 175 176 186 195 193 186 179 172 173 176 170 159 156 162
119 155 189 209 232 257 261 281 23 183 250 283 264 251 245 233 234 252 256 257 252 229 215 193 180 181 188 180 162 167 178 193 199 192 183 178 180 180 175 169 162 157 154 153
192 192 201 192 223 250 268 176 184 237 261 255 261 255 259 273 284 280 253 249 249 231 212 194 186 191 188 177 168 176 192 199 187 173 171 173 176 179 169 160 160 158 156 157
204 199 201 203 222 245 250 239 253 245 256 259 253 269 260 270 277 277 271 259 246 229 218 204 192 189 188 184 178 184 199 183 171 166 174 175 174 173 165 163 163 162 162 166
264 234 212 250 259 265 273 275 277 262 260 264 254 251 239 254 260 265 266 262 255 243 220 208 190 185 196 196 191 189 181 167 160 164 172 170 171 171 168 167 168 168 174 178
237 232 247 263 273 288 276 272 279 285 283 279 276 261 243 254 262 264 259 256 254 260 247 215 202 199 203 198 196 189 172 163 163 167 171 173 173 173 171 172 179 183 190 190
226 218 224 246 247 245 265 276 290 286 274 266 271 284 278 260 261 265 255 256 252 251 245 231 217 207 204 196 198 191 175 165 166 172 177 179 177 174 169 169 171 193 189 194
Height
1516 1521 1524 1521 1519 1521 1522 1525 1527 1523 1516 1518 1522 1522 1519 1517 1517 1518 1518 1519 1520 1521 1523 1524 1526 1527 1529 1530 1532 1532 1534 1535 1536 1537 1537 1538 1539 1540 1541 1542 1543 1543 1543 1544
1521 1523 1516 1514 1515 1517 1520 1525 1525 1520 1515 1517 1522 1521 1517 1515 1515 1515 1515 1516 1518 1519 1521 1522 1524 1526 1527 1528 1530 1531 1532 1533 1534 1536 1537 1538 1539 1540 1541 1542 1543 1543 1544 1544
1523 1518 1512 1514 1516 1518 1520 1523 1523 1522 1518 1517 1521 1525 1520 1515 1514 1514 1514 1514 1515 1517 1518 1520 1522 1523 1525 1526 1528 1529 1530 1532 1533 1534 1536 1537 1538 1539 1540 1541 1542 1543 1544 1544
1518 1513 1513 1515 1516 1517 1523 1515 1516 1519 1526 1532 1526 1540 1525 1517 1515 1513 1512 1513 1513 1515 1516 1517 1519 1521 1522 1524 1526 1527 1529 1530 1531 1533 1534 1535 1536 1537 1539 1540 1541 1542 1543 1544
1518 1513 1513 1516 1514 1513 1516 1512 1514 1518 1524 1531 1528 1537 1530 1518 1518 1513 1510 1510 1511 1512 1513 1515 1516 1518 1520 1522 1524 1525 1527 1528 1530 1531 1532 1534 1535 1537 1538 1540 1541 1542 1543 1544
1514 1511 1511 1512 1510 1510 1511 1514 1518 1523 1529 1540 1529 1535 1533 1521 1514 1509 1508 1508 1509 1510 1511 1512 1514 1516 1518 1520 1522 1523 1525 1526 1528 1529 1531 1532 1534 1536 1537 1539 1540 1541 1542 1543
1519 1514 1510 1510 1512 1512 1514 1528 1542 1544 1547 1542 1526 1529 1527 1511 1506 1505 1505 1506 1507 1508 1509 1510 1512 1514 1515 1517 1519 1521 1522 1524 1526 1528 1530 1531 1533 1534 1536 1537 1539 1540 1541 1542
1530 1528 1514 1511 1513 1517 1518 1525 1543 1550 1549 1541 1528 1529 1519 1505 1503 1502 1503 1504 1505 1506 1507 1508 1509 1511 1512 1514 1516 1518 1520 1522 1524 1526 1528 1530 1532 1533 1535 1536 1538 1539 1540 1541
1531 1529 1513 1510 1510 1512 1519 1524 1524 1536 1536 1541 1534 1523 1513 1506 1504 1504 1504 1505 1505 1505 1505 1506 1507 1509 1510 1512 1514 1516 1518 1520 1522 1524 1526 1528 1530 1532 1534 1535 1536 1538 1539 1540
1523 1528 1518 1512 1510 1512 1515 1519 1530 1536 1544 1547 1535 1528 1524 1513 1509 1506 1505 1505 1504 1504 1504 1505 1505 1507 1508 1510 1512 1514 1516 1518 1521 1523 1525 1527 1529 1531 1532 1534 1535 1537 1538 1539
1521 1528 1525 1518 1519 1520 1520 1522 1528 1535 1538 1545 1545 1533 1509 1509 1507 1505 1504 1503 1503 1503 1503 1503 1504 1506 1507 1508 1510 1513 1515 1517 1519 1521 1523 1525 1527 1529 1531 1532 1534 1535 1537 1538
1521 1529 1533 1524 1516 1513 1516 1520 1527 1538 1538 1538 1541 1531 1503 1503 1503 1503 1503 1503 1502 1502 1502 1502 1503 1505 1506 1507 1509 1511 1513 1515 1517 1519 1522 1524 1526 1528 1529 1531 1533 1534 1536 1537
1520 1529 1537 1533 1528 1520 1518 1518 1522 1529 1536 1539 1540 1528 1503 1503 1503 1503 1503 1503 1502 1502 1502 1502 1503 1504 1505 1506 1508 1509 1511 1513 1516 1518 1520 1522 1524 1526 1528 1529 1531 1533 1534 1535
1517 1527 1534 1537 1531 1524 1522 1518 1519 1526 1535 1535 1530 1520 1509 1506 1504 1503 1502 1502 1502 1501 1501 1501 1502 1503 1504 1505 1506 1508 1510 1512 1514 1516 1518 1520 1522 1524 1526 1528 1530 1531 1533 1534
1518 1526 1524 1522 1518 1517 1517 1516 1515 1519 1522 1526 1520 1516 1509 1505 1504 1502 1501 1501 1501 1500 1500 1500 1501 1502 1503 1504 1505 1507 1509 1511 1513 1515 1517 1518 1520 1522 1524 1526 1528 1529 1531 1532
1519 1524 1523 1521 1516 1515 1515 1511 1510 1511 1511 1513 1512 1510 1502 1501 1502 1501 1500 1500 1500 1499 1499 1499 1500 1501 1501 1502 1504 1505 1507 1509 1511 1513 1515 1517 1519 1520 1522 1524 1526 1528 1529 1531
1521 1524 1528 1529 1520 1516 1518 1509 1507 1506 1504 1506 1509 1504 1499 1500 1499 1498 1498 1498 1498 1498 1497 1497 1498 1499 1500 1501 1502 1503 1505 1507 1509 1511 1513 1515 1517 1518 1520 1522 1524 1526 1527 1529
1519 1523 1529 1530 1526 1528 1512 1499 1499 1500 1500 1499 1497 1496 1495 1495 1495 1495 1495 1496 1495 1495 1495 1495 1496 1497 1498 1499 1500 1502 1503 1505 1507 1509 1511 1513 1515 1516 1518 1520 1522 1524 1526 1527
1511 1519 1527 1530 1529 1519 1506 1499 1498 1500 1499 1496 1496 1495 1494 1493 1492 1493 1493 1493 1492 1492 1493 1493 1494 1495 1496 1497 1498 1500 1501 1503 1505 1506 1508 1510 1512 1514 1516 1518 1520 1522 1523 1525
1510 1514 1523 1526 1526 1522 1506 1496 1493 1496 1500 1494 1493 1493 1492 1492 1496 1492 1490 1490 1489 1489 1490 1490 1491 1493 1494 1495 1496 1497 1499 1500 1502 1504 1506 1508 1510 1512 1514 1515 1518 1519 1521 1523
1515 1517 1520 1522 1521 1511 1498 1494 1493 1504 1501 1492 1491 1490 1490 1490 1490 1488 1487 1487 1487 1487 1487 1487 1488 1489 1491 1492 1493 1494 1496 1498 1500 1501 1503 1505 1508 1510 1511 1513 1516 1517 1519 1521
1513 1515 1517 1518 1518 1511 1493 1493 1496 1495 1490 1489 1488 1488 1487 1486 1485 1485 1484 1484 1484 1483 1484 1484 1485 1486 1488 1490 1491 1492 1493 1495 1497 1499 1501 1503 1505 1507 1509 1511 1513 1515 1517 1519
1506 1506 1506 1505 1503 1493 1490 1490 1489 1488 1487 1486 1485 1485 1484 1483 1483 1483 1482 1481 1480 1481 1481 1481 1482 1483 1485 1487 1488 1489 1491 1492 1495 1497 1498 1500 1502 1505 1507 1509 1510 1512 1514 1516
1501 1498 1499 1498 1493 1490 1488 1488 1487 1486 1484 1483 1482 1482 1481 1479 1479 1478 1478 1477 1477 1478 1478 1478 1479 1480 1482 1483 1485 1487 1488 1490 1491 1494 1496 1497 1499 1501 1503 1506 1507 1509 1511 1513
1497 1496 1496 1495 1490 1487 1485 1484 1484 1483 1481 1480 1479 1478 1477 1476 1475 1475 1473 1473 1473 1474 1474 1475 1475 1476 1478 1480 1482 1484 1485 1487 1488 1490 1493 1495 1496 1498 1500 1502 1504 1506 1508 1510
1491 1492 1493 1490 1486 1485 1482 1480 1480 1479 1477 1476 1476 1474 1474 1473 1471 1471 1470 1469 1469 1470 1471 1471 1472 1473 1474 1476 1478 1480 1482 1483 1485 1487 1489 1491 1493 1495 1497 1499 1501 1504 1506 1507